Location: Alvediston
(51.0078°N, 2.0364°W)
Time: 18:03:50
(UTC+00:00)

STARLINK-69 - Pass Details

Date: 27 February 2020
Orbit: 529 x 530 km, 53.0° (Epoch: 01 April)

Event Time Altitude Azimuth Distance (km) Brightness Sun altitude
Rises 19:03:31 0° 275° (W) 2,669 9.2 -13.2°
Reaches altitude 10° 19:05:45 10° 278° (W) 1,780 7.7 -13.5°
Maximum altitude 19:09:46 64° 0° (N) 591 3.7 -14.1°
Enters shadow 19:12:00 25° 77° (ENE) 1,109 4.6 -14.5°
